cover

Azzido Da Bass - 50.000 Watts (Brooks Remix)

Get it on iTunes StoreListen on Apple Music

Trackname / Key / BPM / Publish dateArtists, Remixers / Label
128 bpm, 12B / E major, 2017-05-19, Progressive House,  0  20

Tracks in release Ibiza Opening 2K17 (Pyro Essentials)

#Trackname / Key / BPM / Publish dateArtists, Remixers / Label
1 126 bpm, 3A / Bb minor, 2017-05-19, Dance,  0  20
2 128 bpm, 11A / F# minor, 2017-05-19, Future House,  0  20
3 126 bpm, 1B / B major, 2017-05-19, Future House,  0  20
4 126 bpm, 1B / B major, 2017-05-19, Big Room,  0  20
5 128 bpm, 6A / G minor, 2017-05-19, Big Room,  0  20
6 128 bpm, 9A / E minor, 2017-05-19, Big Room,  0  20
7 126 bpm, 1B / B major, 2017-05-19, House,  0  20
8 128 bpm, 2B / F# major, 2017-05-19, Electro House,  0  20
9 126 bpm, 9A / E minor, 2017-05-19, Future House,  0  20
10 125 bpm, 8A / A minor, 2017-05-19, House,  0  20
11 128 bpm, 9B / G major, 2017-05-19, Big Room,  0  20
12 128 bpm, 3B / Db major, 2017-05-19, Big Room,  0  20
13 128 bpm, / , 2017-05-19, Big Room,  0  20
14 128 bpm, 7B / F major, 2017-05-19, Big Room,  0  20
15 128 bpm, 7B / F major, 2017-05-19, Electro House,  0  20
16 128 bpm, 1A / Ab minor, 2017-05-19, Progressive House,  0  20
17 128 bpm, 12B / E major, 2017-05-19, Progressive House,  0  20
18 128 bpm, 5A / C minor, 2017-05-19, Progressive House,  0  20
19 125 bpm, 5A / C minor, 2017-05-19, House,  0  20
20 128 bpm, 8A / A minor, 2017-05-19, Progressive House,  0  20
×

Sign in

Sign in to access your personalized pages, follow artists and labels you love, and create playlists fromyour favorite tracks.

Please wait...